CCA4131 ZULS-ZPPP

Flight info

Callsign CCA4131
Flight time N/A
Altitude 35100
Route DEP10R/10R IGDAG W510 ELNUN W9 DOLGU DCT 28N099E DCT CEH DCT PM407
Aircraft B737/M-SDE2E3FGILRWXY/LB2

Departure

Time 2026-04-13 12:53
Airport Lhasa Gonggar International Airport (ZULS)

Arrival

Time N/A
Airport Kunming Changshui International Airport (ZPPP)
Time Latitude Longitude Altitude Speed Heading
2026-04-13 12:39 29.29300 90.89331 11495 ft 0 kts 110°
2026-04-13 12:43 29.29301 90.89330 11495 ft 1 kts 110°
2026-04-13 12:44 29.29305 90.89313 11503 ft 3 kts 102°
2026-04-13 12:44 29.29308 90.89291 11508 ft 3 kts 84°
2026-04-13 12:44 29.29303 90.89269 11512 ft 3 kts 61°
2026-04-13 12:44 29.29292 90.89251 11514 ft 3 kts 37°
2026-04-13 12:45 29.29276 90.89240 11511 ft 2 kts 21°
2026-04-13 12:45 29.29272 90.89238 11513 ft 1 kts 20°
2026-04-13 12:48 29.29272 90.89239 11513 ft 0 kts 20°
2026-04-13 12:48 29.29280 90.89242 11511 ft 2 kts 20°
2026-04-13 12:48 29.29297 90.89248 11513 ft 3 kts 17°
2026-04-13 12:48 29.29316 90.89255 11510 ft 3 kts 17°
2026-04-13 12:49 29.29340 90.89263 11511 ft 4 kts 17°
2026-04-13 12:49 29.29366 90.89273 11510 ft 4 kts 17°
2026-04-13 12:49 29.29397 90.89276 11513 ft 4 kts 346°
2026-04-13 12:49 29.29429 90.89257 11513 ft 6 kts 331°
2026-04-13 12:50 29.29468 90.89224 11511 ft 8 kts 322°
2026-04-13 12:50 29.29520 90.89195 11511 ft 9 kts 353°
2026-04-13 12:50 29.29588 90.89196 11512 ft 10 kts
2026-04-13 12:50 29.29663 90.89196 11513 ft 11 kts 359°
2026-04-13 12:51 29.29739 90.89196 11515 ft 11 kts
2026-04-13 12:51 29.29778 90.89264 11517 ft 13 kts 88°
2026-04-13 12:51 29.29782 90.89502 11520 ft 54 kts 88°
2026-04-13 12:51 29.29792 90.90127 11519 ft 103 kts 89°
2026-04-13 12:52 29.29808 90.91107 11515 ft 144 kts 89°
2026-04-13 12:52 29.29827 90.92392 11516 ft 178 kts 90°
2026-04-13 12:52 29.29862 90.93894 11644 ft 195 kts 88°
2026-04-13 12:52 29.29872 90.95456 11969 ft 202 kts 88°
2026-04-13 12:53 29.29889 90.97110 12215 ft 214 kts 88°
2026-04-13 12:53 29.29906 90.98262 12401 ft 220 kts 87°
2026-04-13 12:53 29.29985 91.00030 12818 ft 227 kts 81°
2026-04-13 12:53 29.30324 91.01845 13103 ft 239 kts 70°
2026-04-13 12:54 29.30986 91.03652 13434 ft 254 kts 61°
2026-04-13 12:54 29.31758 91.05547 13633 ft 273 kts 71°
2026-04-13 12:54 29.32054 91.07774 13759 ft 294 kts 89°
2026-04-13 12:54 29.31769 91.10178 13873 ft 315 kts 106°
2026-04-13 12:55 29.31124 91.12607 14118 ft 324 kts 105°
2026-04-13 12:55 29.30565 91.15159 14566 ft 336 kts 101°
2026-04-13 12:55 29.30187 91.17848 15055 ft 347 kts 95°
2026-04-13 12:55 29.29986 91.20602 15542 ft 357 kts 93°
2026-04-13 12:56 29.29804 91.23470 16015 ft 363 kts 93°
2026-04-13 12:56 29.29609 91.26351 16489 ft 362 kts 94°
2026-04-13 12:56 29.29638 91.29234 16927 ft 365 kts 77°
2026-04-13 12:56 29.30519 91.32013 17065 ft 380 kts 56°
2026-04-13 12:57 29.32003 91.34579 17433 ft 391 kts 52°
2026-04-13 12:57 29.33593 91.37140 18030 ft 395 kts 51°
2026-04-13 12:57 29.35208 91.39701 18643 ft 398 kts 51°
2026-04-13 12:57 29.36812 91.42249 19259 ft 401 kts 51°
2026-04-13 12:58 29.38444 91.44862 19865 ft 405 kts 51°
2026-04-13 12:58 29.40084 91.47507 20449 ft 408 kts 51°
2026-04-13 12:58 29.41727 91.50178 20985 ft 410 kts 51°
2026-04-13 12:58 29.43373 91.52860 21624 ft 414 kts 51°
2026-04-13 12:59 29.45040 91.55583 22110 ft 421 kts 51°
2026-04-13 12:59 29.46739 91.58365 22644 ft 426 kts 51°
2026-04-13 12:59 29.48449 91.61169 23245 ft 430 kts 51°
2026-04-13 12:59 29.50173 91.63997 23752 ft 434 kts 50°
2026-04-13 13:00 29.51914 91.66858 24180 ft 439 kts 50°
2026-04-13 13:00 29.53673 91.69748 24674 ft 443 kts 50°
2026-04-13 13:00 29.55441 91.72655 25224 ft 446 kts 50°
2026-04-13 13:00 29.57220 91.75583 25753 ft 448 kts 49°
2026-04-13 13:01 29.59009 91.78530 26267 ft 452 kts 49°
2026-04-13 13:01 29.60791 91.81468 26650 ft 455 kts 49°
2026-04-13 13:01 29.62631 91.84501 27181 ft 458 kts 49°
2026-04-13 13:01 29.64437 91.87480 27680 ft 461 kts 49°
2026-04-13 13:02 29.66281 91.90523 28131 ft 465 kts 49°
2026-04-13 13:02 29.68137 91.93590 28587 ft 469 kts 48°
2026-04-13 13:02 29.70004 91.96678 29076 ft 471 kts 48°
2026-04-13 13:02 29.71885 91.99792 29547 ft 474 kts 48°
2026-04-13 13:03 29.73771 92.02917 29993 ft 477 kts 48°
2026-04-13 13:03 29.75663 92.06054 30342 ft 479 kts 47°
2026-04-13 13:03 29.77575 92.09227 30617 ft 483 kts 47°
2026-04-13 13:03 29.79496 92.12417 30934 ft 485 kts 48°
2026-04-13 13:04 29.81397 92.15577 31349 ft 485 kts 48°
2026-04-13 13:04 29.83316 92.18772 31854 ft 484 kts 48°
2026-04-13 13:04 29.85228 92.21957 32331 ft 483 kts 47°
2026-04-13 13:04 29.87137 92.25138 32630 ft 485 kts 48°
2026-04-13 13:05 29.89068 92.28351 32877 ft 489 kts 48°
2026-04-13 13:05 29.91007 92.31583 33292 ft 489 kts 48°
2026-04-13 13:05 29.92930 92.34800 33738 ft 487 kts 47°
2026-04-13 13:05 29.94847 92.38007 34115 ft 486 kts 47°
2026-04-13 13:06 29.96767 92.41219 34402 ft 486 kts 47°
2026-04-13 13:06 29.98688 92.44430 34676 ft 486 kts 47°
2026-04-13 13:06 30.00506 92.47473 34954 ft 487 kts 47°
2026-04-13 13:06 30.02439 92.50709 34988 ft 492 kts 47°
2026-04-13 13:07 30.05529 92.57772 35015 ft 509 kts 71°
2026-04-13 13:07 30.06064 92.61872 34994 ft 511 kts 86°
2026-04-13 13:07 30.05791 92.65899 35007 ft 509 kts 97°
2026-04-13 13:08 30.04653 92.73990 35013 ft 514 kts 98°
2026-04-13 13:08 30.03524 92.82164 35067 ft 517 kts 97°
2026-04-13 13:09 30.02472 92.90389 35071 ft 518 kts 96°
2026-04-13 13:09 30.01438 92.98598 35083 ft 520 kts 96°
2026-04-13 13:10 30.00383 93.06864 35093 ft 521 kts 97°
2026-04-13 13:10 29.99356 93.15139 35117 ft 520 kts 96°
2026-04-13 13:11 29.98371 93.23361 35104 ft 512 kts 96°
2026-04-13 13:11 29.97397 93.31438 35133 ft 512 kts 96°
2026-04-13 13:12 29.96404 93.39583 35140 ft 513 kts 96°
2026-04-13 13:12 29.95400 93.47742 35128 ft 513 kts 96°
2026-04-13 13:13 29.94404 93.55785 35118 ft 502 kts 96°
2026-04-13 13:13 29.93414 93.63753 35117 ft 502 kts 96°
2026-04-13 13:14 29.92420 93.71721 35133 ft 502 kts 96°
2026-04-13 13:14 29.91421 93.79686 35132 ft 502 kts 97°
2026-04-13 13:15 29.90423 93.87608 35143 ft 502 kts 97°
2026-04-13 13:15 29.90016 93.95580 35154 ft 497 kts 83°
2026-04-13 13:16 29.91287 94.03349 35152 ft 492 kts 72°
2026-04-13 13:16 29.92893 94.11018 35152 ft 491 kts 72°
2026-04-13 13:17 29.94456 94.18679 35159 ft 490 kts 73°
2026-04-13 13:17 29.95959 94.26290 35160 ft 489 kts 73°
2026-04-13 13:18 29.97451 94.33935 35161 ft 488 kts 74°
2026-04-13 13:18 29.98934 94.41554 35160 ft 486 kts 74°
2026-04-13 13:19 30.00415 94.49172 35168 ft 486 kts 74°
2026-04-13 13:19 30.01890 94.56781 35164 ft 486 kts 74°
2026-04-13 13:20 30.03363 94.64400 35175 ft 486 kts 74°
2026-04-13 13:20 30.04829 94.72016 35181 ft 486 kts 74°
2026-04-13 13:21 30.06286 94.79608 35159 ft 488 kts 74°
2026-04-13 13:21 30.07751 94.87261 35180 ft 489 kts 75°
2026-04-13 13:22 30.08829 94.95014 35162 ft 493 kts 90°
2026-04-13 13:22 30.08412 94.98933 35181 ft 494 kts 103°
2026-04-13 13:22 30.07301 95.02682 35186 ft 492 kts 118°
2026-04-13 13:23 30.03900 95.09529 35178 ft 492 kts 123°
2026-04-13 13:23 30.00420 95.16277 35182 ft 493 kts 122°
2026-04-13 13:24 29.96955 95.23107 35191 ft 492 kts 122°
2026-04-13 13:24 29.93524 95.29959 35181 ft 493 kts 122°
2026-04-13 13:25 29.90126 95.36765 35194 ft 492 kts 122°
2026-04-13 13:26 29.85004 95.46997 35207 ft 492 kts 122°
2026-04-13 13:26 29.81582 95.53812 35183 ft 491 kts 122°
2026-04-13 13:27 29.78155 95.60623 35195 ft 491 kts 122°
2026-04-13 13:27 29.74725 95.67429 35192 ft 492 kts 122°
2026-04-13 13:28 29.71288 95.74239 35196 ft 492 kts 122°
2026-04-13 13:28 29.67847 95.81044 35206 ft 492 kts 122°
2026-04-13 13:29 29.64404 95.87842 35219 ft 492 kts 122°
2026-04-13 13:29 29.60955 95.94641 35206 ft 493 kts 122°
2026-04-13 13:30 29.57495 96.01448 35214 ft 493 kts 122°
2026-04-13 13:30 29.54053 96.08211 35228 ft 493 kts 122°
2026-04-13 13:31 29.50588 96.15007 35228 ft 493 kts 122°
2026-04-13 13:31 29.47120 96.21795 35235 ft 493 kts 122°
2026-04-13 13:32 29.43650 96.28577 35239 ft 493 kts 122°
2026-04-13 13:32 29.40319 96.35077 35235 ft 493 kts 122°
2026-04-13 13:33 29.36846 96.41843 35263 ft 493 kts 122°
2026-04-13 13:33 29.33370 96.48605 35252 ft 491 kts 122°
2026-04-13 13:34 29.29892 96.55356 35261 ft 492 kts 122°
2026-04-13 13:34 29.26685 96.61574 35262 ft 493 kts 122°
2026-04-13 13:35 29.23196 96.68326 35263 ft 494 kts 122°
2026-04-13 13:35 29.19694 96.75094 35259 ft 493 kts 122°
2026-04-13 13:36 29.16200 96.81835 35254 ft 492 kts 122°
2026-04-13 13:36 29.12698 96.88580 35255 ft 493 kts 123°
2026-04-13 13:37 29.09212 96.95281 35239 ft 493 kts 123°
2026-04-13 13:37 29.05704 97.02015 35257 ft 493 kts 123°
2026-04-13 13:38 29.02193 97.08744 35234 ft 492 kts 123°
2026-04-13 13:38 28.98684 97.15459 35234 ft 493 kts 123°
2026-04-13 13:39 28.95158 97.22193 35230 ft 494 kts 123°
2026-04-13 13:39 28.91625 97.28932 35214 ft 495 kts 123°
2026-04-13 13:40 28.88086 97.35672 35239 ft 495 kts 123°
2026-04-13 13:40 28.84562 97.42370 35225 ft 495 kts 123°
2026-04-13 13:41 28.81019 97.49095 35210 ft 494 kts 123°
2026-04-13 13:41 28.77479 97.55803 35238 ft 494 kts 123°
2026-04-13 13:42 28.73927 97.62521 35221 ft 495 kts 123°
2026-04-13 13:42 28.70365 97.69250 35217 ft 496 kts 124°
2026-04-13 13:43 28.66800 97.75970 35223 ft 495 kts 124°
2026-04-13 13:43 28.63234 97.82685 35229 ft 496 kts 124°
2026-04-13 13:44 28.59683 97.89360 35228 ft 497 kts 124°
2026-04-13 13:44 28.56101 97.96082 35222 ft 497 kts 124°
2026-04-13 13:45 28.52510 98.02810 35219 ft 497 kts 124°
2026-04-13 13:45 28.48920 98.09526 35211 ft 496 kts 124°
2026-04-13 13:46 28.45330 98.16231 35225 ft 496 kts 124°
2026-04-13 13:46 28.41735 98.22934 35217 ft 497 kts 125°
2026-04-13 13:47 28.38153 98.29603 35227 ft 498 kts 125°
2026-04-13 13:47 28.34535 98.36329 35228 ft 499 kts 125°
2026-04-13 13:48 28.30916 98.43045 35227 ft 498 kts 125°
2026-04-13 13:48 28.27288 98.49767 35210 ft 499 kts 126°
2026-04-13 13:49 28.23656 98.56485 35208 ft 500 kts 126°
2026-04-13 13:49 28.20038 98.63167 34964 ft 502 kts 126°
2026-04-13 13:49 28.18217 98.66529 34736 ft 498 kts 125°
2026-04-13 13:50 28.16410 98.69861 34511 ft 496 kts 125°
2026-04-13 13:50 28.14597 98.73201 34294 ft 497 kts 125°
2026-04-13 13:50 28.12781 98.76543 33971 ft 499 kts 125°
2026-04-13 13:50 28.10955 98.79899 33578 ft 501 kts 125°
2026-04-13 13:51 28.09124 98.83264 33204 ft 502 kts 125°
2026-04-13 13:51 28.07292 98.86628 32812 ft 502 kts 125°
2026-04-13 13:51 28.05460 98.89993 32425 ft 501 kts 125°
2026-04-13 13:51 28.03631 98.93349 32066 ft 499 kts 125°
2026-04-13 13:52 28.01808 98.96689 31708 ft 499 kts 125°
2026-04-13 13:52 27.99989 98.99954 31346 ft 497 kts 128°
2026-04-13 13:52 27.97836 99.03060 30973 ft 492 kts 135°
2026-04-13 13:52 27.95648 99.05953 30635 ft 489 kts 135°
2026-04-13 13:53 27.93436 99.08842 30277 ft 484 kts 135°
2026-04-13 13:53 27.91231 99.11720 29865 ft 482 kts 135°
2026-04-13 13:53 27.89035 99.14594 29471 ft 483 kts 135°
2026-04-13 13:53 27.86843 99.17478 29063 ft 484 kts 135°
2026-04-13 13:54 27.84655 99.20366 28687 ft 484 kts 135°
2026-04-13 13:54 27.82469 99.23258 28274 ft 484 kts 134°
2026-04-13 13:54 27.80284 99.26151 27894 ft 484 kts 134°
2026-04-13 13:54 27.78095 99.29049 27519 ft 484 kts 134°
2026-04-13 13:55 27.75907 99.31943 27148 ft 485 kts 134°
2026-04-13 13:55 27.73712 99.34843 26760 ft 486 kts 134°
2026-04-13 13:55 27.71508 99.37752 26425 ft 486 kts 134°
2026-04-13 13:55 27.69305 99.40660 26034 ft 488 kts 134°
2026-04-13 13:56 27.67103 99.43564 25687 ft 488 kts 134°
2026-04-13 13:56 27.64926 99.46432 25337 ft 487 kts 134°
2026-04-13 13:56 27.62730 99.49326 24968 ft 479 kts 134°
2026-04-13 13:56 27.60593 99.52144 24612 ft 466 kts 134°
2026-04-13 13:57 27.58508 99.54890 24295 ft 455 kts 134°
2026-04-13 13:57 27.56474 99.57567 23945 ft 445 kts 134°
2026-04-13 13:57 27.54475 99.60193 23586 ft 436 kts 134°
2026-04-13 13:57 27.52513 99.62768 23194 ft 429 kts 134°
2026-04-13 13:58 27.50585 99.65296 22780 ft 422 kts 134°
2026-04-13 13:58 27.48685 99.67786 22387 ft 415 kts 134°
2026-04-13 13:58 27.46815 99.70236 21997 ft 410 kts 134°
2026-04-13 13:58 27.44967 99.72653 21682 ft 404 kts 135°
2026-04-13 13:59 27.43147 99.75035 21388 ft 400 kts 135°
2026-04-13 13:59 27.41360 99.77371 21074 ft 397 kts 135°
2026-04-13 13:59 27.39807 99.79939 20743 ft 401 kts 117°
2026-04-13 13:59 27.38811 99.82868 20489 ft 401 kts 110°
2026-04-13 14:00 27.37953 99.85867 20213 ft 404 kts 108°
2026-04-13 14:00 27.37333 99.88961 19915 ft 406 kts 100°
2026-04-13 14:00 27.36889 99.92092 19794 ft 404 kts 99°
2026-04-13 14:00 27.36486 99.95236 19750 ft 406 kts 98°
2026-04-13 14:01 27.36093 99.98373 19756 ft 405 kts 99°
2026-04-13 14:01 27.35707 100.01499 19733 ft 404 kts 98°
2026-04-13 14:01 27.35325 100.04629 19735 ft 404 kts 98°
2026-04-13 14:01 27.34940 100.07764 19709 ft 405 kts 98°
2026-04-13 14:02 27.34554 100.10904 19512 ft 404 kts 98°
2026-04-13 14:02 27.34178 100.14006 19257 ft 396 kts 98°
2026-04-13 14:02 27.33831 100.16915 19051 ft 386 kts 98°
2026-04-13 14:02 27.33480 100.19887 18692 ft 381 kts 98°
2026-04-13 14:03 27.33127 100.22820 18361 ft 376 kts 98°
2026-04-13 14:03 27.32671 100.25698 17958 ft 370 kts 110°
2026-04-13 14:03 27.31498 100.28224 17577 ft 361 kts 133°
2026-04-13 14:03 27.29669 100.30065 17196 ft 348 kts 154°
2026-04-13 14:04 27.27496 100.31117 16796 ft 333 kts 172°
2026-04-13 14:04 27.25269 100.31430 16408 ft 316 kts 182°
2026-04-13 14:04 27.23091 100.31536 15995 ft 307 kts 184°
2026-04-13 14:04 27.20986 100.31603 15654 ft 297 kts 184°
2026-04-13 14:05 27.18950 100.31666 15329 ft 291 kts 184°
2026-04-13 14:05 27.16938 100.31734 15041 ft 288 kts 183°
2026-04-13 14:05 27.14963 100.31807 14732 ft 286 kts 183°
2026-04-13 14:05 27.12976 100.31885 14442 ft 286 kts 183°
2026-04-13 14:06 27.10989 100.31967 14145 ft 285 kts 183°
2026-04-13 14:06 27.09007 100.32051 13824 ft 284 kts 183°
2026-04-13 14:06 27.07676 100.32109 13596 ft 282 kts 183°
2026-04-13 14:06 27.05088 100.32223 13190 ft 281 kts 183°
2026-04-13 14:07 27.03794 100.32279 12965 ft 282 kts 183°
2026-04-13 14:07 27.01832 100.32365 12643 ft 283 kts 183°
2026-04-13 14:07 26.99190 100.32480 12223 ft 284 kts 182°
2026-04-13 14:07 26.97881 100.32538 12017 ft 285 kts 182°
2026-04-13 14:08 26.95921 100.32627 11707 ft 278 kts 183°
2026-04-13 14:08 26.93510 100.32735 11294 ft 262 kts 183°
2026-04-13 14:08 26.92876 100.32761 11190 ft 257 kts 185°
2026-04-13 14:08 26.91574 100.32603 11094 ft 241 kts 198°
2026-04-13 14:09 26.90000 100.32129 11071 ft 228 kts 201°
2026-04-13 14:09 26.88523 100.31623 11065 ft 215 kts 202°
2026-04-13 14:09 26.87117 100.31136 11080 ft 208 kts 202°
2026-04-13 14:09 26.85777 100.30673 11048 ft 196 kts 203°
2026-04-13 14:10 26.84488 100.30229 10812 ft 193 kts 203°
2026-04-13 14:10 26.83217 100.29793 10570 ft 188 kts 203°
2026-04-13 14:10 26.81980 100.29369 10280 ft 183 kts 203°
2026-04-13 14:10 26.80799 100.28963 10041 ft 177 kts 203°
2026-04-13 14:11 26.79657 100.28573 9816 ft 162 kts 204°
2026-04-13 14:11 26.78617 100.28217 9529 ft 151 kts 204°
2026-04-13 14:11 26.77618 100.27873 9326 ft 151 kts 203°
2026-04-13 14:11 26.76612 100.27526 9137 ft 151 kts 201°
2026-04-13 14:12 26.75589 100.27176 8933 ft 155 kts 201°
2026-04-13 14:12 26.74563 100.26823 8700 ft 153 kts 200°
2026-04-13 14:12 26.73555 100.26479 8482 ft 150 kts 201°
2026-04-13 14:12 26.72556 100.26135 8226 ft 151 kts 201°
2026-04-13 14:13 26.71537 100.25786 7956 ft 154 kts 202°
2026-04-13 14:13 26.70534 100.25437 7634 ft 148 kts 202°
2026-04-13 14:13 26.69572 100.25118 7417 ft 142 kts 201°
2026-04-13 14:14 26.67897 100.24538 7289 ft 98 kts 197°
2026-04-13 14:14 26.67438 100.24383 7284 ft 67 kts 197°
2026-04-13 14:14 26.67140 100.24282 7287 ft 22 kts 193°
2026-04-13 14:14 26.66991 100.24258 7287 ft 21 kts 181°
2026-04-13 14:15 26.66887 100.24275 7288 ft 8 kts 166°
2026-04-13 14:15 26.66830 100.24290 7291 ft 8 kts 166°
2026-04-13 14:15 26.66783 100.24319 7291 ft 8 kts 128°
2026-04-13 14:15 26.66758 100.24373 7289 ft 8 kts 107°
2026-04-13 14:16 26.66746 100.24421 7287 ft 0 kts 106°